RH
80 84 86 87 89 87 85 84 84 91 85 84 84 82 79 76 76 74 68 64 63 62
64 69 73 78 85 82 75 78 83 83 84 83 77 79 74 71 69 70 69 67 66 64
57 58 60 64 71 72 73 75 81 80 80 80 81 78 75 71 70 70 69 68 65 60
45 51 57 60 63 68 73 74 77 80 83 83 83 75 75 73 73 72 69 64 59 56
34 37 44 48 52 57 65 76 78 78 78 76 73 72 75 77 75 70 64 61 57 60
31 32 34 39 44 48 51 53 57 57 56 52 51 56 62 61 57 57 56 52 53 52
31 32 34 36 38 41 44 45 45 44 44 45 47 47 47 46 45 46 47 47 48 50
36 36 37 38 39 40 41 43 43 45 46 47 48 47 46 45 44 44 46 46 49 50
43 42 40 40 41 43 45 47 50 51 52 51 51 51 51 50 50 49 51 53 54 56
46 46 47 49 50 52 53 54 55 52 52 52 52 53 53 53 53 52 54 57 60 62
48 51 53 54 55 55 56 55 53 53 53 52 52 54 55 57 58 59 62 63 65 66
51 53 55 56 55 57 58 57 56 56 56 56 57 59 61 62 62 64 67 70 72 73
52 54 57 59 59 61 63 62 62 63 63 64 65 65 65 63 64 67 71 75 79 79
55 58 60 63 62 62 66 67 67 67 69 70 70 69 69 67 68 72 74 74 69 63